Volver al catálogo

YAM-3

ActivoComunicacionesPO
NORAD 48915·PAYLOAD·🇺🇸 United States

Lanzado Jun 30, 2021 desde Cape Canaveral Space Force Station

Loading…

Próximos Pases (próximas 24 horas)

TLE

ActualizadoSource: Space-Track

Época: Sep 14, 2026, 12:16 UTC

1 48915U 21059AN  26257.51158340  .00009535  00000-0  17001-3 0  9997
2 48915  97.6977  90.4395 0005976  48.2355 311.9405 15.50310688290829

Sigue YAM-3 en tiempo real con AllMySat

Download on the App Store